Estación de Punta Cortes
Ultimos registro cada 15 minutos 57
| N° | Estación | Fecha / Hora | Temperatura | Humedad | Lluvia | Velocidad | Dirección | Radiación | Presion |
| 57 | Punta Cortes | 05-05-2026 14:00 | 19,5 | 52 | 0 | 0,4 | 156 | 181 | 1015,7 |
| 56 | Punta Cortes | 05-05-2026 13:45 | 19,3 | 50 | 0 | 1,3 | 134 | 220 | 1015,7 |
| 55 | Punta Cortes | 05-05-2026 13:30 | 19,4 | 51 | 0 | 1,8 | 223 | 195 | 1015,7 |
| 54 | Punta Cortes | 05-05-2026 13:15 | 19,6 | 50 | 0 | 0,9 | 211 | 236 | 1015,7 |
| 53 | Punta Cortes | 05-05-2026 13:00 | 19,3 | 49 | 0 | 1,3 | 216 | 285 | 1015,6 |
| 52 | Punta Cortes | 05-05-2026 12:45 | 19,1 | 51 | 0 | 1,3 | 164 | 287 | 1015,6 |
| 51 | Punta Cortes | 05-05-2026 12:30 | 18,7 | 52 | 0 | 1,3 | 114 | 392 | 1015,7 |
| 50 | Punta Cortes | 05-05-2026 12:15 | 18,4 | 56 | 0 | 2,2 | 180 | 202 | 1015,5 |
| 49 | Punta Cortes | 05-05-2026 12:00 | 18,4 | 56 | 0 | 2,2 | 180 | 202 | 1015,5 |
| 48 | Punta Cortes | 05-05-2026 11:45 | 18,8 | 52 | 0 | 1,3 | 129 | 248 | 1015,7 |
| 47 | Punta Cortes | 05-05-2026 11:30 | 18 | 53 | 0 | 1,8 | 180 | 285 | 1016,1 |
| 46 | Punta Cortes | 05-05-2026 11:15 | 16,9 | 59 | 0 | 0,4 | 190 | 260 | 1016,4 |
| 45 | Punta Cortes | 05-05-2026 11:00 | 16,2 | 63 | 0 | 0,4 | 194 | 179 | 1016,6 |
| 44 | Punta Cortes | 05-05-2026 10:45 | 15,5 | 66 | 0 | 0 | 194 | 197 | 1016,6 |
| 43 | Punta Cortes | 05-05-2026 10:30 | 14,8 | 65 | 0 | 0 | 311 | 171 | 1016,6 |
| 42 | Punta Cortes | 05-05-2026 10:15 | 14,3 | 68 | 0 | 0,4 | 354 | 100 | 1016,7 |
| 41 | Punta Cortes | 05-05-2026 10:00 | 13,7 | 70 | 0 | 1,8 | 355 | 128 | 1016,6 |
| 40 | Punta Cortes | 05-05-2026 09:45 | 13,3 | 71 | 0 | 1,3 | 9 | 95 | 1016,6 |
| 39 | Punta Cortes | 05-05-2026 09:30 | 13 | 71 | 0 | 0,9 | 345 | 79 | 1016,9 |
| 38 | Punta Cortes | 05-05-2026 09:15 | 12,5 | 72 | 0 | 1,8 | 347 | 77 | 1017 |
| 37 | Punta Cortes | 05-05-2026 09:00 | 11,8 | 75 | 0 | 0,9 | 326 | 84 | 1017,3 |
| 36 | Punta Cortes | 05-05-2026 08:45 | 11,3 | 79 | 0 | 0,4 | 357 | 54 | 1017,6 |
| 35 | Punta Cortes | 05-05-2026 08:30 | 11 | 80 | 0 | 0,9 | 7 | 54 | 1018,2 |
| 34 | Punta Cortes | 05-05-2026 08:15 | 10,9 | 78 | 0 | 1,3 | 17 | 47 | 1018,4 |
| 33 | Punta Cortes | 05-05-2026 08:00 | 10,8 | 79 | 0 | 1,8 | 348 | 23 | 1018,9 |
| 32 | Punta Cortes | 05-05-2026 07:45 | 10,1 | 83 | 0 | 2,7 | 1 | 9 | 1019,4 |
| 31 | Punta Cortes | 05-05-2026 07:30 | 10 | 84 | 0 | 0 | 360 | 0 | 1019,2 |
| 30 | Punta Cortes | 05-05-2026 07:15 | 9,9 | 85 | 0 | 1,8 | 341 | 0 | 1020,3 |
| 29 | Punta Cortes | 05-05-2026 07:00 | 9,6 | 86 | 0 | 0 | 313 | 0 | 1020,1 |
| 28 | Punta Cortes | 05-05-2026 06:45 | 9,3 | 86 | 0 | 0 | 306 | 0 | 1020 |
| 27 | Punta Cortes | 05-05-2026 06:30 | 9,4 | 85 | 0 | 0 | 328 | 0 | 1019,9 |
| 26 | Punta Cortes | 05-05-2026 06:15 | 9,4 | 85 | 0 | 0 | 327 | 0 | 1019,7 |
| 25 | Punta Cortes | 05-05-2026 06:00 | 9,6 | 85 | 0 | 0 | 323 | 0 | 1019,4 |
| 24 | Punta Cortes | 05-05-2026 05:45 | 9,7 | 83 | 0 | 0 | 323 | 0 | 1019,2 |
| 23 | Punta Cortes | 05-05-2026 05:30 | 9,6 | 84 | 0 | 0,4 | 342 | 0 | 1018,7 |
| 22 | Punta Cortes | 05-05-2026 05:15 | 9,5 | 86 | 0 | 0 | 146 | 0 | 1018,6 |
| 21 | Punta Cortes | 05-05-2026 05:00 | 9,6 | 84 | 0 | 0 | 86 | 0 | 1018,2 |
| 20 | Punta Cortes | 05-05-2026 04:45 | 9,7 | 82 | 0 | 0 | 86 | 0 | 1018 |
| 19 | Punta Cortes | 05-05-2026 04:30 | 9,7 | 83 | 0 | 0 | 149 | 0 | 1017,9 |
| 18 | Punta Cortes | 05-05-2026 04:15 | 9,4 | 84 | 0 | 0,4 | 349 | 0 | 1017,8 |
| 17 | Punta Cortes | 05-05-2026 04:00 | 9,5 | 83 | 0 | 0 | 349 | 0 | 1017,8 |
| 16 | Punta Cortes | 05-05-2026 03:45 | 9,7 | 83 | 0 | 0,4 | 354 | 0 | 1017,6 |
| 15 | Punta Cortes | 05-05-2026 03:30 | 9,3 | 84 | 0 | 0 | 304 | 0 | 1017,6 |
| 14 | Punta Cortes | 05-05-2026 03:15 | 9,5 | 85 | 0 | 0 | 297 | 0 | 1017,8 |
| 13 | Punta Cortes | 05-05-2026 03:00 | 9,5 | 85 | 0 | 0 | 297 | 0 | 1017,5 |
| 12 | Punta Cortes | 05-05-2026 02:45 | 9,6 | 84 | 0 | 0 | 316 | 0 | 1017,8 |
| 11 | Punta Cortes | 05-05-2026 02:30 | 9,6 | 84 | 0 | 0 | 306 | 0 | 1018,3 |
| 10 | Punta Cortes | 05-05-2026 02:15 | 9,4 | 84 | 0 | 0 | 180 | 0 | 1018,3 |
| 9 | Punta Cortes | 05-05-2026 02:00 | 9,6 | 83 | 0 | 0 | 185 | 0 | 1018,6 |
| 8 | Punta Cortes | 05-05-2026 01:45 | 9,6 | 82 | 0 | 0 | 85 | 0 | 1018,6 |
| 7 | Punta Cortes | 05-05-2026 01:30 | 9,7 | 81 | 0 | 0 | 77 | 0 | 1018,8 |
| 6 | Punta Cortes | 05-05-2026 01:15 | 9,6 | 82 | 0 | 0,9 | 65 | 0 | 1018,8 |
| 5 | Punta Cortes | 05-05-2026 01:00 | 9,8 | 81 | 0 | 0,4 | 359 | 0 | 1018,9 |
| 4 | Punta Cortes | 05-05-2026 00:45 | 9,9 | 82 | 0 | 0,9 | 15 | 0 | 1018,8 |
| 3 | Punta Cortes | 05-05-2026 00:30 | 9,3 | 84 | 0 | 0 | 333 | 0 | 1018,9 |
| 2 | Punta Cortes | 05-05-2026 00:15 | 8,9 | 85 | 0 | 0 | 309 | 0 | 1019,2 |
| 1 | Punta Cortes | 05-05-2026 00:00 | 8,7 | 84 | 0 | 0 | 69 | 0 | 1019,1 |